Weather History for Sioux Falls, SD

Change the Weather History Date:

Wednesday, August 1, 2012

  Actual Average Record
Temperature  
Mean Temperature 85 °F 73 °F  
Max Temperature 102 °F 84 °F 102 °F (2012)
Min Temperature 68 °F 62 °F 45 °F (1904)
Degree Days  
Heating Degree Days 0 0  
Month to date heating degree days 0 0  
Since 1 June heating degree days 21 59  
Since 1 July heating degree days 0 8  
Cooling Degree Days 20 8  
Month to date cooling degree days 20 8  
Year to date cooling degree days 861 435  
Since 1 June cooling degree days 775 399  
Growing Degree Days 35 (Base 50)    
Moisture  
Dew Point 63 °F    
Average Humidity 54    
Maximum Humidity 84    
Minimum Humidity 23    
Precipitation  
Precipitation 0.16 in 0.11 in 4.59 in (1975)
Month to date precipitation 0.16 0.11  
Year to date precipitation 12.09 16.45  
Snow  
Snow 0.00 in 0.00 in 0.00 in ()
Month to date snowfall 0.0 0.0  
Since 1 June snowfall 0.0 0.0  
Since 1 July snowfall 0.0 0.0  
Snow Depth 0.00 in    
Sea Level Pressure  
Sea Level Pressure 29.86 in    
Wind  
Wind Speed 11 mph (South)    
Max Wind Speed 29 mph    
Max Gust Speed 37 mph    
Visibility 10 miles    
Events Rain , Thunderstorm    
T = Trace of Precipitation, MM = Missing Value Source: NWS Daily Summary

Daily Weather History Graph

Daily Weather History Graph

Search for Another Location

Airport:

Trip Planner

Search our weather history database for the weather conditions in past years. The results will help you decide how hot, cold, wet, or windy it might be!

Date:

Astronomy

Aug. 01, 2012 Rise Set
Actual Time 6:16 AM CDT 8:49 PM CDT
Civil Twilight 5:44 AM CDT 9:21 PM CDT
Nautical Twilight 5:03 AM CDT 10:02 PM CDT
Astronomical Twilight 4:17 AM CDT 10:47 PM CDT
Moon 8:17 PM CDT (8/1) 5:48 AM CDT (8/1)
Length of Visible Light 15h 37m
Length of Day
14h 32m
Full, 100% of the Moon is Illuminated
Aug 1
Full
Aug 1
Full
Aug 9
Last Quarter
Aug 17
New
Aug 24
First Quarter

Hourly Weather History & Observations

Time (CDT) Temp. Heat Index Dew Point Humidity Pressure Visibility Wind Dir Wind Speed Gust Speed Precip Events Conditions
12:56 AM 77.0 °F - 66.0 °F 69% 29.91 in 10.0 mi SSE 8.1 mph - N/A   Clear
1:56 AM 75.9 °F - 64.9 °F 69% 29.90 in 10.0 mi SSE 8.1 mph - N/A   Clear
2:56 AM 75.0 °F - 64.9 °F 71% 29.90 in 10.0 mi South 6.9 mph - N/A   Clear
3:56 AM 72.0 °F - 64.0 °F 76% 29.89 in 10.0 mi South 4.6 mph - N/A   Clear
4:56 AM 72.0 °F - 64.0 °F 76% 29.88 in 10.0 mi South 4.6 mph - N/A   Clear
5:56 AM 71.1 °F - 63.0 °F 75% 29.89 in 10.0 mi South 4.6 mph - N/A   Clear
6:56 AM 69.1 °F - 64.0 °F 84% 29.89 in 10.0 mi Calm Calm - N/A   Clear
7:56 AM 75.0 °F - 63.0 °F 66% 29.89 in 10.0 mi SSW 9.2 mph - N/A   Clear
8:56 AM 79.0 °F - 64.9 °F 62% 29.89 in 10.0 mi SSW 10.4 mph - N/A   Clear
9:56 AM 84.0 °F 86.3 °F 66.0 °F 55% 29.87 in 10.0 mi South 18.4 mph 24.2 mph N/A   Clear
10:56 AM 88.0 °F 90.3 °F 66.0 °F 48% 29.87 in 10.0 mi SSW 10.4 mph - N/A   Clear
11:56 AM 91.0 °F 93.0 °F 64.9 °F 42% 29.87 in 10.0 mi SSW 11.5 mph 18.4 mph N/A   Clear
12:56 PM 93.9 °F 96.1 °F 64.9 °F 38% 29.85 in 10.0 mi South 13.8 mph - N/A   Clear
1:56 PM 97.0 °F 99.3 °F 64.0 °F 34% 29.82 in 10.0 mi SSW 12.7 mph 20.7 mph N/A   Clear
2:56 PM 99.0 °F 99.5 °F 61.0 °F 28% 29.80 in 10.0 mi South 8.1 mph 16.1 mph N/A   Clear
3:56 PM 100.9 °F 101.6 °F 60.1 °F 26% 29.78 in 10.0 mi SSW 17.3 mph 20.7 mph N/A   Partly Cloudy
4:56 PM 100.9 °F 99.6 °F 55.0 °F 22% 29.76 in 10.0 mi SSW 15.0 mph 26.5 mph N/A   Partly Cloudy
5:56 PM 99.0 °F 98.1 °F 57.0 °F 25% 29.75 in 10.0 mi SW 11.5 mph 19.6 mph N/A   Partly Cloudy
6:56 PM 97.0 °F 95.7 °F 57.0 °F 26% 29.74 in 10.0 mi SSW 11.5 mph 19.6 mph N/A   Partly Cloudy
7:56 PM 82.0 °F 83.1 °F 63.0 °F 52% 29.81 in 10.0 mi NNE 24.2 mph 35.7 mph N/A   Mostly Cloudy
8:01 PM 82.4 °F 83.4 °F 62.6 °F 51% 29.84 in 10.0 mi NNE 20.7 mph 35.7 mph N/A   Scattered Clouds
8:56 PM 77.0 °F - 66.0 °F 69% 29.89 in 10.0 mi North 23.0 mph 36.8 mph 0.00 in Rain , Thunderstorm Light Thunderstorms and Rain
9:06 PM 75.2 °F - 64.4 °F 69% 29.91 in 10.0 mi North 19.6 mph 33.4 mph 0.00 in Rain , Thunderstorm Light Thunderstorms and Rain
9:44 PM 73.4 °F - 64.4 °F 73% 29.93 in 10.0 mi ENE 13.8 mph - 0.00 in   Scattered Clouds
9:56 PM 73.9 °F - 64.0 °F 71% 29.94 in 10.0 mi WNW 9.2 mph 17.3 mph 0.00 in Rain , Thunderstorm Light Thunderstorms and Rain
10:29 PM 69.8 °F - 66.2 °F 88% 29.98 in 4.0 mi Calm Calm - 0.06 in Rain Rain
10:56 PM 70.0 °F - 66.9 °F 90% 29.87 in 7.0 mi ESE 18.4 mph 23.0 mph 0.14 in Rain Rain
11:56 PM 69.1 °F - 66.0 °F 90% 29.85 in 10.0 mi ESE 10.4 mph - 0.02 in   Clear